Погода в Улановом

Россия / Калужская область     54°55′58″N   35°53′58″E
темп.,
°C
ветер,
м/с
пор.,
м/с
влажн.,
%
обл.,
%
осадки,
мм/ч
давл.,
гПа
погр.,
м
22 октября, пт
пт2200:00+11ююз71674100 0.0 995780
03:00+11юз71571100 0.0 994855
06:00+11зюз71672100 0.0 9951336
09:00+11зюз613745 0.0 9961198
12:00+11зюз91761100 0.1 9981842
15:00+10зюз816635 0.3 10001755
18:00+8зюз714595 0.0 10021253
21:00+7зюз61367100 0.0 10031183
23 октября, сб
сб2300:00+7юз61270100 0.0 10041038
03:00+6юз61273100 0.0 1004933
06:00+4юз512767 0.0 1004739
09:00+5юз6127150 0.0 10041038
12:00+7юз61068100 0.0 10051051
15:00+7зюз5107382 0.1 10051175
18:00+5зюз5117410 0.1 1007774
21:00+3юз5128265 0.1 1009687
24 октября, вс
вс2400:00+4зюз51282100 0.0 1009719
03:00+4з61295100 0.3 10091104
06:00+3з51092100 0.2 1011797
09:00+2зсз5995100 0.4 1013823
12:00+2зсз51095100 0.4 1014741
15:00+2сз61181100 0.7 1016991
18:00+2ссз5117499 0.1 10191122
21:000ссз6127891 0.2 1022883
25 октября, пн
пн2500:000ссз5107994 0.0 1024939
03:00−1ссз51081100 0.0 1026758
06:00−2ссз39855 0.0 1028459
09:00−1ссз378498 0.0 1030374
12:00+2сз3462100 0.0 1031673
15:00+3зсз34515 0.0 1031750
18:000зюз347052 0.0 103165
21:00−1юз397452 0.0 1031200
26 октября, вт
вт2600:00−1юз311761 0.0 1030279
03:00−1юз4128015 0.0 1030335
06:00−1юз4137937 0.0 1028371
09:000юз51371100 0.0 1027412
12:00+4юз6135188 0.0 1025607
15:00+5юз61453100 0.0 1023751
18:00+3юз61562100 0.0 1022575
21:00+2юз61668100 0.0 1020593